This demonstration page uses our WeatherBlox Daily Observations layout. Learn more.

41.55636, -103.73856

Hourly Observations for September 28, 2017

Temp ( °F °C ) Dew Point ( °F °C ) Humidity (%) Winds ( mph kmh ) Pressure ( in mb ) Visibility ( mi km ) Precip ( " mm )
12:53 am 00:53 Cloudy 49 9.4 44 6.7 83 83 NNE 3 6 30.28 1025 10 16.0934 0 0
1:53 am 01:53 Cloudy 51 10.6 46 7.8 83 83 Calm 30.28 1025 10 16.0934 0 0
2:53 am 02:53 Cloudy 50 10 47 8.3 89 89 Calm 30.26 1025 10 16.0934 0 0
3:53 am 03:53 Cloudy 49 9.4 46 7.8 90 90 Calm 30.26 1025 10 16.0934 0 0
4:53 am 04:53 Cloudy 49 9.4 45 7.2 86 86 N 3 6 30.27 1025 10 16.0934 0 0
5:53 am 05:53 Cloudy 48 8.9 45 7.2 89 89 NW 3 6 30.29 1026 10 16.0934 0 0
6:53 am 06:53 Cloudy 49 9.4 46 7.8 90 90 Calm 30.3 1026 10 16.0934 0 0
7:53 am 07:53 Cloudy 50 10 46 7.8 86 86 Calm 30.32 1027 10 16.0934 0 0
8:53 am 08:53 Cloudy 52 11.1 46 7.8 80 80 Calm 30.32 1027 10 16.0934 0 0
9:53 am 09:53 Cloudy 53 11.7 47 8.3 80 80 Calm 30.32 1027 10 16.0934 0 0
10:53 am 10:53 Cloudy 56 13.3 47 8.3 72 72 Calm 30.32 1027 10 16.0934 0 0.0254
11:53 am 11:53 Cloudy with Light Rain 57 13.9 48 8.9 72 72 S 5 7 30.32 1027 9 14.48406 0 0.0254
12:53 pm 12:53 Mostly Cloudy 59 15 48 8.9 67 67 S 7 11 30.3 1026 10 16.0934 0 0.0254
1:53 pm 13:53 Cloudy with Light Rain 58 14.4 48 8.9 70 70 S 5 7 30.28 1026 10 16.0934 0 0.0254
2:53 pm 14:53 Cloudy 62 16.7 49 9.4 62 62 VRB 3 6 30.25 1025 10 16.0934 0.01 0.254
3:53 pm 15:53 Cloudy 62 16.7 44 6.7 52 52 SSE 9 15 30.24 1024 10 16.0934 0 0
4:53 pm 16:53 Cloudy 61 16.1 45 7.2 56 56 SSE 6 9 30.25 1024 10 16.0934 0 0
5:53 pm 17:53 Cloudy 60 15.6 45 7.2 58 58 SSE 6 9 30.25 1024 10 16.0934 0 0
6:53 pm 18:53 Cloudy with Light Rain 58 14.4 47 8.3 67 67 SSW 5 7 30.26 1025 10 16.0934 0 0.0254
7:53 pm 19:53 Cloudy with Light Rain 57 13.9 49 9.4 74 74 Calm 30.27 1025 10 16.0934 0 0.0254
8:53 pm 20:53 Cloudy with Light Rain 56 13.3 49 9.4 77 77 Calm 30.29 1026 7 11.26538 0.01 0.254
9:53 pm 21:53 Cloudy 55 12.8 51 10.6 87 87 Calm 30.29 1026 10 16.0934 0 0.0254
10:53 pm 22:53 Cloudy 54 12.2 50 10 87 87 N 3 6 30.28 1025 10 16.0934 0 0
11:53 pm 23:53 Cloudy 54 12.2 50 10 87 87 Calm 30.26 1025 10 16.0934 0 0

Powered by AerisWeather